User: anonymous
Location: Holcomb Observatory
(44.4922°N, 73.1654°W)
Time: 21:34:21
(UTC-04:00)
Language:

Cosmos 1727 Rocket - Orbit

View from above orbital plane
View from above orbital plane
View from above satellite
View from above satellite

Ground track
Ground track

The orbit data is extracted from the following two-line orbital elements,

1 16511U 86008B   14204.85748071  .00000066  00000-0  52992-4 0  5402
2 16511 082.9457 285.4776 0023876 005.3115 132.4343 13.75765170430617
Epoch (UTC): 23 July 2014 20:34:46
Eccentricity: 0.0023876
inclination: 82.9457°
perigee height: 961 km
apogee height: 996 km
right ascension of ascending node: 285.4776°
argument of perigee: 5.3115°
revolutions per day: 13.75765170
mean anomaly at epoch: 132.4343°
orbit number at epoch: 43061

The dashed part of the orbit path shows where the satellite is in the earth's shadow,  

DLR